DW4075 Weather Reports


Display with metric or nautical units.
time (UTC)temp
F
wind
direction
speed
MPH
gust
MPH
rain 1hr
in
rain 24hr
in
rain mn
in
humidity
%
barometer
mb
20260504232603 71 221 9.0 16.0 0.00 0.00 0.00 19 1015.0
20260504232103 71 301 9.0 19.0 0.00 0.00 0.00 18 1015.4
20260504231603 73 278 8.0 19.0 0.00 0.00 0.00 17 1016.0
20260504231102 73 306 8.0 18.0 0.00 0.00 0.00 19 1016.0
20260504230603 72 245 9.0 20.0 0.00 0.00 0.00 19 1015.9
20260504230319 71 268 11.0 23.0 0.00 0.00 0.00 19 1015.6
20260504225603 71 236 10.0 23.0 0.00 0.00 0.00 18 1015.5
20260504225102 71 205 7.0 15.0 0.00 0.00 0.00 19 1015.7
20260504224820 71 242 8.0 15.0 0.00 0.00 0.00 19 1015.6
20260504224055 71 272 10.0 16.0 0.00 0.00 0.00 19 1015.6
20260504223555 70 312 8.0 19.0 0.00 0.00 0.00 19 1015.4
20260504223056 70 313 8.0 19.0 0.00 0.00 0.00 19 1015.4
20260504222552 70 280 8.0 18.0 0.00 0.00 0.00 19 1015.6
20260504222053 69 266 9.0 18.0 0.00 0.00 0.00 19 1015.3
20260504221553 69 288 9.0 18.0 0.00 0.00 0.00 20 1015.3
20260504221053 69 281 9.0 16.0 0.00 0.00 0.00 19 1015.4
20260504220553 70 304 9.0 19.0 0.00 0.00 0.00 19 1015.6
20260504220259 70 288 7.0 18.0 0.00 0.00 0.00 18 1016.0
20260504220252 70 298 9.0 19.0 0.00 0.00 0.00 18 1015.9
20260504215052 71 246 7.0 16.0 0.00 0.00 0.00 18 1016.1
20260504214551 71 302 7.0 15.0 0.00 0.00 0.00 17 1016.3
20260504214046 71 301 8.0 18.0 0.00 0.00 0.00 18 1016.3
20260504213537 70 239 9.0 18.0 0.00 0.00 0.00 18 1016.5
20260504213036 71 317 9.0 20.0 0.00 0.00 0.00 17 1016.6
20260504213023 70 316 10.0 20.0 0.00 0.00 0.00 17 1016.3
20260504212035 71 263 9.0 19.0 0.00 0.00 0.00 17 1017.0
20260504211536 71 295 9.0 16.0 0.00 0.00 0.00 16 1016.8
20260504211031 70 275 10.0 22.0 0.00 0.00 0.00 16 1016.7
20260504210531 70 258 10.0 22.0 0.00 0.00 0.00 16 1016.8
20260504210033 70 273 9.0 20.0 0.00 0.00 0.00 15 1016.5
20260504205754 70 244 9.0 21.0 0.00 0.00 0.00 15 1016.6
20260504205033 70 267 11.0 21.0 0.00 0.00 0.00 16 1016.8
20260504204532 70 245 11.0 22.0 0.00 0.00 0.00 15 1017.1
20260504204259 71 251 11.0 22.0 0.00 0.00 0.00 15 1017.1
20260504203756 70 255 10.0 19.0 0.00 0.00 0.00 14 1017.0
20260504203028 71 311 10.0 20.0 0.00 0.00 0.00 14 1017.1
20260504202526 71 296 9.0 20.0 0.00 0.00 0.00 14 1017.2
20260504202027 71 279 8.0 18.0 0.00 0.00 0.00 15 1017.7
20260504201526 71 276 7.0 18.0 0.00 0.00 0.00 14 1017.8
20260504201026 72 246 7.0 16.0 0.00 0.00 0.00 15 1017.8
20260504200526 71 266 7.0 16.0 0.00 0.00 0.00 17 1017.7
20260504200244 72 271 7.0 13.0 0.00 0.00 0.00 17 1017.8
20260504195523 72 229 8.0 18.0 0.00 0.00 0.00 15 1017.8
20260504195017 71 275 10.0 18.0 0.00 0.00 0.00 17 1017.8
20260504194514 71 267 10.0 20.0 0.00 0.00 0.00 17 1017.6
20260504194012 71 265 8.0 20.0 0.00 0.00 0.00 17 1017.7
20260504193733 71 247 9.0 16.0 0.00 0.00 0.00 19 1017.7
20260504193012 71 236 8.0 16.0 0.00 0.00 0.00 19 1017.7
20260504192509 71 244 8.0 15.0 0.00 0.00 0.00 21 1017.8
20260504192010 70 207 8.0 18.0 0.00 0.00 0.00 21 1017.6
20260504191506 70 236 9.0 18.0 0.00 0.00 0.00 23 1017.3
20260504191006 69 263 9.0 18.0 0.00 0.00 0.00 21 1017.2
20260504190726 70 309 8.0 16.0 0.00 0.00 0.00 21 1017.8
20260504190004 71 246 7.0 16.0 0.00 0.00 0.00 20 1017.8
20260504185503 70 246 6.0 14.0 0.00 0.00 0.00 21 1017.7
20260504185002 71 223 7.0 14.0 0.00 0.00 0.00 20 1017.8
20260504184502 71 226 7.0 14.0 0.00 0.00 0.00 20 1017.9
20260504184225 70 261 7.0 19.0 0.00 0.00 0.00 22 1017.9
20260504183500 70 244 6.0 19.0 0.00 0.00 0.00 21 1017.6
20260504183000 69 285 6.0 11.0 0.00 0.00 0.00 21 1017.6
20260504182500 70 295 6.0 12.0 0.00 0.00 0.00 21 1017.6
20260504181959 70 306 7.0 12.0 0.00 0.00 0.00 22 1017.7
20260504181458 70 269 7.0 12.0 0.00 0.00 0.00 22 1017.7
20260504180956 69 271 7.0 13.0 0.00 0.00 0.00 21 1017.7
20260504180458 69 224 8.0 29.0 0.00 0.00 0.00 22 1017.7
20260504175956 69 324 7.0 29.0 0.00 0.00 0.00 21 1017.6
20260504175456 69 172 5.0 9.0 0.00 0.00 0.00 25 1017.9
20260504174948 69 238 6.0 12.0 0.00 0.00 0.00 26 1017.9
20260504174448 69 173 6.0 12.0 0.00 0.00 0.00 25 1017.9
20260504173945 69 148 6.0 11.0 0.00 0.00 0.00 29 1018.0
20260504173446 69 199 6.0 11.0 0.00 0.00 0.00 29 1018.3
20260504172946 68 184 6.0 11.0 0.00 0.00 0.00 30 1017.8
20260504172446 67 174 7.0 13.0 0.00 0.00 0.00 31 1017.6
20260504171945 67 183 6.0 13.0 0.00 0.00 0.00 32 1017.3
20260504171444 66 157 6.0 12.0 0.00 0.00 0.00 32 1017.4
20260504171201 66 155 6.0 14.0 0.00 0.00 0.00 33 1017.3
20260504170929 66 131 4.0 13.0 0.00 0.00 0.00 33 1017.3
20260504150904 56 175 5.0 9.0 0.00 0.00 0.00 59 1014.4
20260504150623 56 155 6.0 9.0 0.00 0.00 0.00 61 1014.5
20260504141328 51 240 1.0 5.0 0.00 0.00 0.00 71 1012.5
20260504141053 50 240 1.0 4.0 0.00 0.00 0.00 73 1012.1
20260504140330 49 240 0.0 0.0 0.00 0.00 0.00 76 1011.9
20260504130441 45 211 1.0 3.0 0.00 0.00 0.00 74 1009.9
20260504120137 46 211 1.0 4.0 0.00 0.00 0.00 71 1009.3
20260504110104 47 211 1.0 3.0 0.00 0.00 0.00 70 1009.7
20260504100532 48 211 0.0 0.0 0.00 0.00 0.00 65 1010.8
20260504100251 49 211 0.0 0.0 0.00 0.00 0.00 64 1010.9
20260504081936 53 194 3.0 8.0 0.00 0.00 0.00 60 1013.8
20260504081700 53 309 3.0 6.0 0.00 0.00 0.00 59 1013.3
20260504081156 53 310 4.0 10.0 0.00 0.00 0.00 59 1013.3
20260504080656 53 310 4.0 10.0 0.00 0.00 0.00 60 1013.4
20260504050336 57 252 8.0 15.0 0.00 0.00 0.00 53 1016.2
20260504045836 57 255 8.0 15.0 0.00 0.00 0.00 53 1016.2
20260504045340 57 233 8.0 15.0 0.00 0.00 0.00 52 1016.5
20260504045058 57 242 8.0 15.0 0.00 0.00 0.00 52 1016.3
20260504044335 57 236 8.0 15.0 0.00 0.00 0.00 52 1016.3
20260504043834 58 223 8.0 15.0 0.00 0.00 0.00 52 1016.6
20260504043335 58 223 8.0 15.0 0.00 0.00 0.00 52 1016.5
20260504042831 58 235 7.0 15.0 0.00 0.00 0.00 51 1016.5
20260504042331 58 248 7.0 15.0 0.00 0.00 0.00 51 1016.5
20260504042101 58 242 7.0 15.0 0.00 0.00 0.00 49 1016.5
20260504041330 57 244 6.0 13.0 0.00 0.00 0.00 49 1016.3
20260504040830 58 232 5.0 12.0 0.00 0.00 0.00 47 1016.5
20260504040330 58 236 5.0 12.0 0.00 0.00 0.00 45 1016.6
20260504035831 58 244 5.0 10.0 0.00 0.00 0.00 44 1016.6
20260504035331 58 240 5.0 10.0 0.00 0.00 0.00 43 1016.8
20260504034829 58 223 6.0 9.0 0.00 0.00 0.00 42 1016.6
20260504034558 58 242 6.0 0.0 0.00 0.00 0.00 41 1016.6
20260504034014 58 246 5.0 10.0 0.00 0.00 0.00 40 1016.7
20260504033513 58 171 5.0 11.0 0.00 0.00 0.00 39 1016.7
20260504033012 58 224 5.0 11.0 0.00 0.00 0.00 39 1016.8
20260504032512 58 248 3.0 9.0 0.00 0.00 0.00 37 1016.8
20260504032008 59 237 3.0 8.0 0.00 0.00 0.00 37 1016.8
20260504031507 59 239 4.0 9.0 0.00 0.00 0.00 36 1017.0
20260504031006 59 240 4.0 9.0 0.00 0.00 0.00 35 1017.1
20260504030504 60 242 5.0 10.0 0.00 0.00 0.00 35 1017.2
20260504030002 60 246 5.0 12.0 0.00 0.00 0.00 34 1017.2
20260504025504 60 229 6.0 14.0 0.00 0.00 0.00 34 1017.3
20260504025003 60 237 6.0 14.0 0.00 0.00 0.00 33 1017.3
20260504024500 60 229 6.0 11.0 0.00 0.00 0.00 33 1017.2
20260504023959 61 223 7.0 12.0 0.00 0.00 0.00 32 1017.3
20260504023500 61 227 7.0 13.0 0.00 0.00 0.00 32 1017.3
20260504023001 61 209 7.0 14.0 0.00 0.00 0.00 31 1017.2
20260504022721 61 205 7.0 14.0 0.00 0.00 0.00 31 1017.2
20260504022217 61 227 7.0 18.0 0.00 0.00 0.00 31 1017.1
20260504021457 62 207 6.0 18.0 0.00 0.00 0.00 30 1017.1
20260504020956 62 208 6.0 14.0 0.00 0.00 0.00 30 1017.2
20260504020454 62 204 6.0 15.0 0.00 0.00 0.00 29 1017.3
20260504015950 63 214 6.0 15.0 0.00 0.00 0.00 29 1017.7
20260504015452 63 207 6.0 13.0 0.00 0.00 0.00 28 1017.6
20260504014948 64 225 6.0 10.0 0.00 0.00 0.00 28 1017.7
20260504014447 64 221 5.0 10.0 0.00 0.00 0.00 26 1017.9
20260504014218 65 223 5.0 10.0 0.00 0.00 0.00 25 1018.0
20260504013712 65 248 4.0 10.0 0.00 0.00 0.00 24 1018.3
20260504013209 66 243 4.0 8.0 0.00 0.00 0.00 23 1018.2
20260504012935 66 215 3.0 8.0 0.00 0.00 0.00 23 1018.3
20260504012209 66 194 1.0 5.0 0.00 0.00 0.00 24 1018.4
20260504011433 66 194 1.0 5.0 0.00 0.00 0.00 24 1018.5
20260504011159 67 194 4.0 11.0 0.00 0.00 0.00 24 1018.7
20260504010425 67 194 6.0 11.0 0.00 0.00 0.00 25 1018.8
20260504005924 67 185 6.0 13.0 0.00 0.00 0.00 24 1018.8
20260504005422 67 190 8.0 14.0 0.00 0.00 0.00 25 1019.0
20260504004921 67 223 9.0 19.0 0.00 0.00 0.00 24 1018.9
20260504004418 67 175 8.0 19.0 0.00 0.00 0.00 24 1019.0
20260504003914 68 179 7.0 15.0 0.00 0.00 0.00 25 1019.1
20260504003412 68 238 7.0 16.0 0.00 0.00 0.00 23 1019.4
20260504002907 68 175 8.0 16.0 0.00 0.00 0.00 23 1019.4
20260504002404 69 150 7.0 15.0 0.00 0.00 0.00 23 1019.6
20260504002123 69 184 6.0 16.0 0.00 0.00 0.00 25 1020.1
20260504001359 69 250 7.0 16.0 0.00 0.00 0.00 24 1020.0
20260504000855 69 191 8.0 14.0 0.00 0.00 0.00 24 1020.2
20260504000347 69 184 8.0 20.0 0.00 0.00 0.00 24 1020.2
20260503235837 69 194 8.0 20.0 0.00 0.00 0.00 24 1020.1
20260503235337 69 162 8.0 16.0 0.00 0.00 0.00 23 1020.2
20260503234837 70 167 8.0 15.0 0.00 0.00 0.00 23 1020.4
20260503234338 70 168 8.0 16.0 0.00 0.00 0.00 22 1020.6
20260503233835 71 177 7.0 16.0 0.00 0.00 0.00 23 1020.7
20260503233335 71 190 8.0 14.0 0.00 0.00 0.00 23 1020.7